Station: Clare  

  Atmospheric Gas Attenuation - ITU Rec 676-11   ----------------- dB/100km -----------------
Date Time Temp RH % AH g/m3 Dew Point Wind Direction Speed kph Gust kph Barometer mB Rainfall Since 9am 24GHz 47GHz 76GHz 122GHz 134GHz 241GHz
08/05 21:00 11.5 94 9.71 10.6 15 20 1030.1 0.2 22.1 29.1 46.5 122.1 118.4 408.0
08/05 20:50 11.5 95 9.81 10.7 11 15 1030.2 0.2 22.3 29.3 46.9 123.2 119.9 413.0
08/05 20:40 11.6 95 9.88 10.8 11 15 1030.2 0.2 22.4 29.4 47.2 123.9 120.7 416.0
08/05 20:30 11.6 94 9.77 10.7 11 20 1030.1 0 22.2 29.2 46.7 122.6 119.1 410.5
08/05 20:20 11.5 94 9.71 10.6 11 13 1030.2 0 22.1 29.1 46.5 122.1 118.4 408.0
08/05 20:10 11.2 93 9.43 10.1 9 11 1030.1 0 21.5 28.7 45.5 119.3 114.9 395.5
08/05 20:00 11.4 93 9.55 10.3 11 20 1030 0 21.7 28.9 45.9 120.3 116.3 400.5
08/05 19:50 11.6 94 9.77 10.7 13 17 1030.1 0 22.2 29.2 46.7 122.6 119.1 410.5
08/05 19:40 11.8 93 9.79 10.7 9 11 1030.1 0 22.2 29.2 46.7 122.5 119.1 410.4
08/05 19:30 11.9 92 9.74 10.6 13 20 1029.9 0 22.1 29.0 46.4 121.7 118.2 407.3
08/05 19:20 11.9 91 9.64 10.5 15 20 1029.9 0 21.9 28.9 45.9 120.6 116.8 402.3
08/05 19:10 11.9 91 9.64 10.5 9 11 1029.9 0 21.9 28.9 45.9 120.6 116.8 402.3
08/05 19:00 11.8 90 9.47 10.2 9 15 1029.8 0 21.5 28.6 45.3 118.8 114.5 394.4
08/05 18:50 11.7 90 9.41 10.1 7 11 1029.8 0 21.4 28.5 45.1 118.2 113.8 391.9
08/05 18:40 11.8 90 9.47 10.2 6 9 1029.8 0 21.5 28.6 45.3 118.8 114.5 394.4
08/05 18:30 11.8 90 9.47 10.2 7 13 1029.7 0 21.5 28.6 45.3 118.8 114.5 394.3
08/05 18:20 11.7 90 9.41 10.1 9 11 1029.7 0 21.4 28.5 45.1 118.2 113.8 391.9
08/05 18:10 11.8 89 9.37 10 9 11 1029.7 0 21.3 28.4 44.8 117.6 113.1 389.4
08/05 18:00 11.8 88 9.26 9.9 11 19 1029.6 0 21.1 28.2 44.4 116.3 111.5 383.9
08/05 17:50 12 88 9.38 10.1 11 15 1029.7 0 21.3 28.4 44.8 117.4 112.9 388.9
08/05 17:40 12.2 87 9.39 10.1 9 13 1029.5 0 21.3 28.3 44.7 117.2 112.8 388.3
08/05 17:30 12.5 86 9.46 10.2 11 20 1029.4 0 21.5 28.3 44.8 117.6 113.3 390.2
08/05 17:20 12.8 85 9.52 10.3 15 17 1029.5 0 21.6 28.4 44.9 117.8 113.7 391.7
08/05 17:10 12.9 85 9.58 10.4 9 19 1029.5 0 21.7 28.4 45.1 118.3 114.4 394.1
08/05 17:00 12.9 87 9.81 10.8 9 17 1029.4 0 22.2 28.8 46.1 120.9 117.6 405.4
08/05 16:50 12.8 87 9.75 10.7 11 17 1029.5 0 22.1 28.8 45.9 120.4 116.9 403.0
08/05 16:40 13 86 9.75 10.7 13 17 1029.6 0 22.1 28.7 45.8 120.1 116.6 402.0
08/05 16:30 12.9 87 9.81 10.8 9 20 1029.4 0 22.2 28.8 46.1 120.9 117.6 405.4
08/05 16:20 12.9 86 9.69 10.6 13 17 1029.5 0 21.9 28.6 45.6 119.6 115.9 399.5
08/05 16:10 13 84 9.53 10.4 11 13 1029.6 0 21.6 28.3 44.8 117.6 113.5 391.2
08/05 16:00 13.3 81 9.36 10.1 13 22 1029.5 0 21.2 27.9 43.9 115.2 110.7 381.4
08/05 15:50 13.3 82 9.47 10.3 11 17 1029.6 0 21.5 28.1 44.4 116.5 112.3 386.8
08/05 15:40 13.3 83 9.59 10.5 11 15 1029.7 0 21.7 28.3 44.9 117.9 113.9 392.6
08/05 15:30 13 83 9.41 10.2 11 17 1029.6 0 21.3 28.1 44.3 116.3 111.9 385.3
08/05 15:20 12.9 84 9.47 10.3 13 15 1029.8 0 21.5 28.3 44.6 117.1 112.9 388.8
08/05 15:10 13.1 84 9.59 10.5 11 15 1029.8 0 21.7 28.4 45.0 118.2 114.3 393.7
08/05 15:00 13 84 9.53 10.4 11 17 1029.8 0 21.6 28.3 44.8 117.6 113.6 391.3
08/05 14:50 13 82 9.3 10 9 11 1029.9 0 21.1 27.9 43.9 115.1 110.4 380.1
08/05 14:40 12.8 83 9.3 10 13 15 1029.9 0 21.1 28.0 44.0 115.3 110.7 381.1
08/05 14:30 12.7 84 9.35 10.1 11 20 1029.9 0 21.2 28.1 44.2 116.1 111.5 384.0
08/05 14:20 12.7 85 9.46 10.2 9 11 1029.9 0 21.5 28.3 44.7 117.3 113.0 389.4
08/05 14:10 12.7 85 9.46 10.2 7 9 1030 0 21.5 28.3 44.7 117.3 113.0 389.4
08/05 14:00 12.6 82 9.07 9.6 13 22 1029.9 0 20.6 27.7 43.1 113.1 107.8 370.9
08/05 13:50 12.6 86 9.52 10.3 7 11 1030 0 21.6 28.4 45.0 118.2 114.0 392.8
08/05 13:40 12.2 88 9.5 10.3 7 9 1030.1 0 21.6 28.5 45.2 118.5 114.4 393.9
08/05 13:30 12.2 87 9.39 10.1 13 20 1030 0 21.3 28.3 44.7 117.3 112.8 388.5
08/05 13:20 12.2 89 9.61 10.4 19 20 1030.1 0 21.8 28.7 45.7 119.8 115.9 399.4
08/05 13:10 12.1 90 9.65 10.5 9 13 1030.3 0 21.9 28.8 45.9 120.4 116.7 401.9
08/05 13:00 12.1 91 9.76 10.7 9 19 1030.4 0 22.1 29.0 46.4 121.7 118.2 407.4
08/05 12:50 11.8 89 9.37 10 17 19 1030.7 0 21.3 28.5 44.9 117.7 113.2 389.7
08/05 12:40 12 87 9.27 9.9 11 11 1030.7 0 21.1 28.2 44.3 116.3 111.5 383.8
08/05 12:30 12.3 84 9.12 9.7 13 26 1030.9 0 20.8 27.9 43.5 114.2 109.0 375.0
08/05 12:20 12.2 84 9.07 9.6 13 19 1031 0 20.7 27.8 43.4 113.8 108.4 373.1
08/05 12:10 12.4 83 9.07 9.6 13 17 1031.2 0 20.6 27.8 43.3 113.5 108.2 372.2
08/05 12:00 12 83 8.85 9.2 17 28 1031.2 0 20.2 27.5 42.6 111.6 105.7 363.5
08/05 11:50 12.1 84 9.01 9.5 11 22 1031.4 0 20.5 27.8 43.2 113.3 107.8 370.8
08/05 11:40 12.1 84 9.01 9.5 15 24 1031.4 0 20.5 27.8 43.2 113.3 107.8 370.8
08/05 11:30 12.1 84 9.01 9.5 9 19 1031.4 0 20.5 27.8 43.2 113.3 107.8 370.8
08/05 11:20 11.9 85 9 9.5 13 17 1031.6 0 20.5 27.8 43.3 113.5 107.9 371.3
08/05 11:10 12.1 80 8.58 8.8 20 24 1031.7 0 19.6 27.1 41.4 108.5 101.9 350.1
08/05 11:00 12.1 80 8.58 8.8 13 24 1031.6 0 19.6 27.1 41.4 108.5 101.8 350.1
08/05 10:50 12.2 79 8.53 8.7 15 19 1031.7 0 19.5 27.0 41.2 107.8 101.0 347.3
08/05 10:40 12.1 80 8.58 8.8 9 13 1031.7 0 19.6 27.1 41.4 108.5 101.9 350.1
08/05 10:30 12.1 80 8.58 8.8 13 24 1031.6 0 19.6 27.1 41.4 108.5 101.8 350.1
08/05 10:20 12 81 8.63 8.8 13 17 1031.7 0 19.7 27.2 41.7 109.2 102.7 353.0
08/05 10:10 11.8 82 8.63 8.8 11 15 1031.7 0 19.7 27.2 41.8 109.5 102.9 353.9
08/05 10:00 11.7 83 8.68 8.9 11 24 1031.8 0 19.8 27.4 42.1 110.2 103.8 356.8
08/05 09:50 11.6 85 8.84 9.2 6 7 1031.9 0 20.2 27.7 42.8 112.1 106.1 365.0
08/05 09:40 11.4 84 8.62 8.8 13 20 1031.8 0 19.7 27.4 42.0 109.9 103.3 355.3
08/05 09:30 11.2 84 8.52 8.6 11 19 1031.7 0 19.5 27.2 41.6 109.1 102.2 351.3
08/05 09:20 11.3 85 8.67 8.9 11 15 1031.8 0 19.8 27.5 42.2 110.6 104.2 358.1
08/05 09:10 11.2 86 8.72 8.9 9 11 1031.7 0 20.0 27.6 42.5 111.3 105.0 361.0
08/05 09:00 11 86 8.61 8.8 9 19 1031.6 0 19.7 27.5 42.1 110.4 103.7 356.5
08/05 08:50 10.9 85 8.46 8.5 7 9 1031.6 0 19.4 27.2 41.5 108.8 101.8 349.7
08/05 08:40 10.8 86 8.5 8.6 7 9 1031.5 0 19.5 27.3 41.8 109.4 102.5 352.1
08/05 08:30 10.7 87 8.55 8.6 7 15 1031.3 0 19.6 27.4 42.0 110.1 103.3 354.9
08/05 08:20 10.6 89 8.69 8.9 7 7 1031.3 0 19.9 27.7 42.7 111.8 105.4 362.2
08/05 08:10 10.3 89 8.53 8.6 7 11 1031.2 0 19.6 27.5 42.1 110.4 103.5 355.7
08/05 08:00 10.3 90 8.62 8.7 7 13 1030.9 0 19.8 27.7 42.5 111.4 104.8 360.1
08/05 07:50 10.2 90 8.57 8.6 11 13 1031 0 19.7 27.6 42.4 111.0 104.2 358.1
08/05 07:40 10.1 90 8.51 8.5 7 9 1030.9 0 19.6 27.5 42.2 110.4 103.5 355.6
08/05 07:30 10 89 8.36 8.3 7 13 1030.8 0 19.2 27.3 41.6 108.8 101.5 348.6
08/05 07:20 10 89 8.36 8.3 7 9 1030.7 0 19.2 27.3 41.6 108.8 101.5 348.6
08/05 07:10 9.9 90 8.41 8.3 6 6 1030.5 0 19.4 27.4 41.8 109.5 102.3 351.5
08/05 07:00 9.9 90 8.41 8.3 6 9 1030.5 0 19.4 27.4 41.8 109.5 102.3 351.5
08/05 06:50 9.9 90 8.41 8.3 7 9 1030.5 0 19.4 27.4 41.8 109.5 102.3 351.5
08/05 06:40 9.9 90 8.41 8.3 0 0 1030.4 0 19.4 27.4 41.8 109.5 102.3 351.4
08/05 06:30 9.8 90 8.35 8.2 6 11 1030.3 0 19.2 27.3 41.6 109.0 101.6 348.9
08/05 06:20 9.8 89 8.26 8.1 6 7 1030.4 0 19.0 27.2 41.2 107.9 100.3 344.5
08/05 06:10 9.8 88 8.17 7.9 4 6 1030.3 0 18.8 27.0 40.8 106.9 99.1 340.1
08/05 06:00 9.7 86 7.93 7.5 9 11 1030.1 0 18.3 26.6 39.9 104.3 95.9 328.9
08/05 05:50 9.7 86 7.93 7.5 7 11 1030.1 0 18.3 26.6 39.9 104.3 95.9 328.9
08/05 05:40 9.7 85 7.84 7.3 7 9 1030.2 0 18.1 26.5 39.5 103.3 94.6 324.6
08/05 05:30 9.7 85 7.84 7.3 7 11 1030.1 0 18.1 26.5 39.5 103.3 94.6 324.5
08/05 05:20 9.7 85 7.84 7.3 6 6 1030.2 0 18.1 26.5 39.5 103.3 94.6 324.6
08/05 05:10 9.6 86 7.88 7.4 6 7 1030.2 0 18.2 26.6 39.7 103.9 95.3 326.9
08/05 05:00 9.6 86 7.88 7.4 6 11 1030.1 0 18.2 26.6 39.7 103.9 95.3 326.9
08/05 04:50 9.7 86 7.93 7.5 2 6 1030.3 0 18.3 26.7 39.9 104.4 95.9 328.9
08/05 04:40 9.6 87 7.97 7.5 6 7 1030.2 0 18.4 26.7 40.1 104.9 96.6 331.3
08/05 04:30 9.6 87 7.97 7.5 4 9 1030.1 0 18.4 26.7 40.1 104.9 96.5 331.2

Last Refresh: 08-May-2026 21:02:59

Bureau of Meteorology